sat.trackr.live / text

‹ back to catalog

SUPERVIEW NEO-2 05

NORAD 68377 · 2026-062A

PAYLOAD ACTIVE UNKNOWN

§ Identity

Operator
Country
PRC
Launch date
2026-03-25
Launch site
TAISC
Launch vehicle
Mass (kg)
RCS (m²)

External: N2YO · Heavens-Above · Gunter

§ Orbital elements

Epoch: 2026-05-23T23:39:28.028448Z

Period
94.75 min
Inclination
97.4368°
Eccentricity
0.0001958
Mean motion
15.19722639 rev/d
Perigee alt
505.3 km
Apogee alt
508.0 km
Semi-major
6,884.8 km
B*
7.2022e-5
RAAN
151.6381°
Arg perigee
107.1779°
Mean anomaly
252.9671°
Rev number
897

§ Raw data

SUPERVIEW NEO-2 051 68377U 26062A   26143.98574107  .00001471  00000+0  72022-4 0  99932 68377  97.4368 151.6381 0001958 107.1779 252.9671 15.19722639  8971

JSON: /api/v1/satellites/68377 · /tle

For live sub-satellite position, see the globe view (requires WebGL).

§ Visibility from observer

Set your observer location to see the next 7 days of passes ≥ 10°. The values pass through the URL so the page stays shareable.

No JS? Fill the form by hand. The geolocation button needs JavaScript.